Date String (YYYY-MM-DD hh:mm:ss) UTC,Instrument flags,absolute air pressure of the measurement (hPa),sample flow rate (lpm),inlet stack bypass flow (lpm),air temperature of the measurement (°C),ambient temperature measured by the external sensor (°C),aerosol sample conditioner tube jacket temperature (°C),OPC LED temperature (°C),internal box temperature (°C),relative humidity of the measurement (%),span deviation,mass concentration of particles derived from Lorenz-Mie calculation of OPC scattering (μg/m³),mass concentration of particles derived from Lorenz-Mie calculation of OPC scattering (μg/m³),mass concentration of particles derived from Lorenz-Mie calculation of OPC scattering (μg/m³)
DateTimeUTC,F1_M11,P_M11,Q1_M11,Q2_M11,T1_M11,T2_M11,T3_M11,T4_M11,T5_M11,U1_M11,ZSPAN_M11,X0_M11,X2_M11,X1_M11
2023-09-24 11:00:00,SystemResetWarning,0831.9,5.01,000.00,028.5,027.0,000.0,036.9,030.1,11.1,0000.0,0008.18,0003.64,0003.09
2023-09-24 11:01:00,SystemResetWarning,0832.2,4.99,000.00,028.6,027.0,000.0,036.9,030.1,11.1,0000.0,0008.14,0003.61,0003.08
2023-09-24 11:02:00,SystemResetWarning,0832.2,4.99,000.00,028.6,027.0,000.0,036.9,030.1,11.1,0000.0,0007.98,0003.56,0003.08
2023-09-24 11:03:00,SystemResetWarning,0832.2,5.00,000.00,028.6,027.0,000.0,036.9,030.1,11.1,0000.0,0008.08,0003.57,0003.08
2023-09-24 11:04:00,SystemResetWarning,0831.9,5.00,000.00,028.6,027.0,000.0,036.9,030.1,11.1,0000.0,0008.77,0003.58,0003.08
2023-09-24 11:05:00,SystemResetWarning,0831.9,5.00,000.00,028.6,027.0,000.0,036.9,030.1,11.1,0000.0,0009.16,0003.57,0003.10
2023-09-24 11:06:00,SystemResetWarning,0831.8,5.00,000.00,028.6,027.0,000.0,036.9,030.1,11.1,0000.0,0008.53,0003.57,0003.11
2023-09-24 11:07:00,SystemResetWarning,0832.0,5.00,000.00,028.6,027.1,000.0,036.9,030.1,11.2,0000.0,0008.56,0003.56,0003.11
2023-09-24 11:08:00,SystemResetWarning,0831.9,5.00,000.00,028.6,027.1,000.0,036.9,030.1,11.1,0000.0,0009.77,0003.57,0003.12
2023-09-24 11:09:00,SystemResetWarning,0832.2,5.00,000.00,028.6,027.1,000.0,037.0,030.1,11.1,0000.0,0010.43,0003.58,0003.12
2023-09-24 11:10:00,SystemResetWarning,0832.2,5.00,000.00,028.6,027.1,000.0,036.9,030.1,11.1,0000.0,0010.38,0003.57,0003.12
2023-09-24 11:11:00,SystemResetWarning,0832.3,5.00,000.00,028.6,027.0,000.0,036.9,030.1,11.1,0000.0,0010.41,0003.57,0003.11
2023-09-24 11:12:00,SystemResetWarning,0831.7,5.00,000.00,028.6,027.0,000.0,036.9,030.1,11.1,0000.0,0010.74,0003.62,0003.13
2023-09-24 11:13:00,SystemResetWarning,0831.7,5.00,000.00,028.6,027.0,000.0,037.0,030.1,11.1,0000.0,0010.81,0003.61,0003.14
2023-09-24 11:14:00,SystemResetWarning,0831.9,5.00,000.00,028.6,027.0,000.0,037.0,030.0,11.1,0000.0,0011.00,0003.63,0003.14
2023-09-24 11:15:00,SystemResetWarning,0831.8,4.99,000.00,028.6,027.0,000.0,037.0,030.0,11.1,0000.0,0010.42,0003.62,0003.14
2023-09-24 11:16:00,SystemResetWarning,0831.7,5.00,000.00,028.6,027.0,000.0,037.0,030.0,11.1,0000.0,0010.55,0003.63,0003.13
2023-09-24 11:17:00,SystemResetWarning,0831.7,5.00,000.00,028.5,027.0,000.0,037.0,030.0,11.1,0000.0,0010.82,0003.63,0003.12
2023-09-24 11:18:00,SystemResetWarning,0831.7,5.00,000.00,028.5,027.0,000.0,037.0,029.9,11.1,0000.0,0010.83,0003.65,0003.13
2023-09-24 11:19:00,SystemResetWarning,0831.9,4.99,000.00,028.5,026.9,000.0,037.0,030.0,11.1,0000.0,0010.01,0003.63,0003.13
2023-09-24 11:20:00,SystemResetWarning,0832.0,5.00,000.00,028.5,026.9,000.0,036.9,029.9,11.1,0000.0,0009.07,0003.64,0003.13
2023-09-24 11:21:00,SystemResetWarning,0832.3,5.00,000.00,028.5,026.9,000.0,036.9,029.9,11.2,0000.0,0009.09,0003.65,0003.12
2023-09-24 11:22:00,SystemResetWarning,0832.2,5.01,000.00,028.5,026.9,000.0,036.9,029.9,11.2,0000.0,0009.12,0003.67,0003.12
2023-09-24 11:23:00,SystemResetWarning,0832.1,5.00,000.00,028.5,026.8,000.0,036.9,029.9,11.2,0000.0,0009.13,0003.68,0003.11
2023-09-24 11:24:00,SystemResetWarning,0831.8,5.01,000.00,028.5,026.8,000.0,036.9,029.9,11.3,0000.0,0008.96,0003.67,0003.11
2023-09-24 11:25:00,SystemResetWarning,0831.7,5.00,000.00,028.4,026.8,000.0,036.9,029.8,11.3,0000.0,0009.27,0003.66,0003.10
2023-09-24 11:26:00,SystemResetWarning,0831.8,4.99,000.00,028.4,026.8,000.0,036.9,029.8,11.3,0000.0,0009.32,0003.71,0003.10
2023-09-24 11:27:00,SystemResetWarning,0831.8,4.99,000.00,028.4,026.8,000.0,036.9,029.8,11.3,0000.0,0008.82,0003.72,0003.10
2023-09-24 11:28:00,SystemResetWarning,0832.1,4.99,000.00,028.4,026.8,000.0,036.9,029.8,11.3,0000.0,0008.54,0003.71,0003.10
2023-09-24 11:29:00,SystemResetWarning,0832.1,5.01,000.00,028.4,026.8,000.0,036.9,029.8,11.3,0000.0,0008.26,0003.73,0003.10
2023-09-24 11:30:00,SystemResetWarning,0832.3,5.01,000.00,028.4,026.8,000.0,036.9,029.8,11.2,0000.0,0007.83,0003.71,0003.09
2023-09-24 11:31:00,SystemResetWarning,0832.2,5.00,000.00,028.4,026.7,000.0,036.9,029.8,11.1,0000.0,0007.80,0003.68,0003.07
2023-09-24 11:32:00,SystemResetWarning,0831.9,5.00,000.00,028.4,026.7,000.0,036.9,029.8,11.1,0000.0,0008.23,0003.69,0003.07
2023-09-24 11:33:00,SystemResetWarning,0831.8,5.00,000.00,028.4,026.7,000.0,036.9,029.8,11.1,0000.0,0008.30,0003.68,0003.09
2023-09-24 11:34:00,SystemResetWarning,0831.9,4.99,000.00,028.3,026.7,000.0,036.8,029.7,11.0,0000.0,0008.12,0003.63,0003.09
2023-09-24 11:35:00,SystemResetWarning,0831.9,4.99,000.00,028.3,026.7,000.0,036.8,029.7,11.0,0000.0,0008.34,0003.67,0003.09
2023-09-24 11:36:00,SystemResetWarning,0831.8,5.00,000.00,028.3,026.7,000.0,036.8,029.7,11.0,0000.0,0008.11,0003.67,0003.07
2023-09-24 11:37:00,SystemResetWarning,0832.0,5.01,000.00,028.3,026.7,000.0,036.8,029.7,10.9,0000.0,0008.33,0003.65,0003.06
2023-09-24 11:38:00,SystemResetWarning,0832.3,5.00,000.00,028.3,026.7,000.0,036.8,029.7,11.0,0000.0,0008.56,0003.61,0003.05
2023-09-24 11:39:00,SystemResetWarning,0832.0,5.00,000.00,028.3,026.7,000.0,036.8,029.7,11.0,0000.0,0008.59,0003.62,0003.05
2023-09-24 11:40:00,SystemResetWarning,0831.7,5.00,000.00,028.3,026.6,000.0,036.8,029.7,11.0,0000.0,0008.60,0003.60,0003.03
2023-09-24 11:41:00,SystemResetWarning,0831.7,4.99,000.00,028.3,026.6,000.0,036.8,029.7,11.0,0000.0,0008.92,0003.65,0003.04
2023-09-24 11:42:00,SystemResetWarning,0831.7,5.00,000.00,028.3,026.6,000.0,036.8,029.7,10.9,0000.0,0008.97,0003.68,0003.04
2023-09-24 11:43:00,SystemResetWarning,0831.7,5.00,000.00,028.3,026.6,000.0,036.8,029.7,10.8,0000.0,0008.57,0003.68,0003.04
2023-09-24 11:44:00,SystemResetWarning,0831.7,5.01,000.00,028.3,026.6,000.0,036.8,029.7,10.9,0000.0,0008.52,0003.66,0003.02
2023-09-24 11:45:00,SystemResetWarning,0831.7,5.00,000.00,028.3,026.6,000.0,036.7,029.7,10.9,0000.0,0008.58,0003.69,0003.02
2023-09-24 11:46:00,SystemResetWarning,0831.7,5.00,000.00,028.2,026.6,000.0,036.7,029.7,10.9,0000.0,0008.63,0003.66,0003.03
2023-09-24 11:47:00,SystemResetWarning,0831.7,4.99,000.00,028.2,026.6,000.0,036.7,029.7,10.9,0000.0,0008.50,0003.64,0003.05
2023-09-24 11:48:00,SystemResetWarning,0831.7,4.99,000.00,028.2,026.6,000.0,036.7,029.6,10.9,0000.0,0008.01,0003.62,0003.07
2023-09-24 11:49:00,SystemResetWarning,0831.7,5.01,000.00,028.2,026.6,000.0,036.7,029.6,10.9,0000.0,0008.55,0003.61,0003.08
2023-09-24 11:50:00,SystemResetWarning,0832.2,5.01,000.00,028.2,026.6,000.0,036.7,029.6,10.9,0000.0,0008.56,0003.58,0003.08
2023-09-24 11:51:00,SystemResetWarning,0832.0,5.00,000.00,028.2,026.6,000.0,036.7,029.6,10.9,0000.0,0008.63,0003.60,0003.09
2023-09-24 11:52:00,SystemResetWarning,0832.0,4.98,000.00,028.2,026.6,000.0,036.7,029.6,10.9,0000.0,0008.57,0003.56,0003.09
2023-09-24 11:53:00,SystemResetWarning,0832.3,4.99,000.00,028.2,026.6,000.0,036.7,029.6,10.7,0000.0,0009.13,0003.53,0003.10
2023-09-24 11:54:00,SystemResetWarning,0832.1,5.01,000.00,028.2,026.6,000.0,036.7,029.6,10.6,0000.0,0009.54,0003.55,0003.11
2023-09-24 11:55:00,SystemResetWarning,0832.0,5.01,000.00,028.2,026.6,000.0,036.7,029.6,10.7,0000.0,0009.65,0003.55,0003.12
2023-09-24 11:56:00,SystemResetWarning,0832.2,5.00,000.00,028.2,026.5,000.0,036.7,029.6,10.7,0000.0,0010.06,0003.54,0003.12
2023-09-24 11:57:00,SystemResetWarning,0832.1,4.99,000.00,028.2,026.5,000.0,036.7,029.6,10.6,0000.0,0009.85,0003.53,0003.12
2023-09-24 11:58:00,SystemResetWarning,0832.1,5.00,000.00,028.2,026.5,000.0,036.7,029.6,10.6,0000.0,0009.91,0003.52,0003.11
2023-09-24 11:59:00,SystemResetWarning,0832.0,5.01,000.00,028.1,026.5,000.0,036.7,029.6,10.5,0000.0,0009.89,0003.50,0003.10
